Flag for Malaysia Weather past 2 weeks in Kuala Lumpur, Malaysia

Now
84 °F

Partly sunny.


Feels Like: 92 °F
Forecast: 76 / 90 °F
Wind: 12 mph from Southeast

Location: Sultan Abdul Aziz Shah-Subang

Current Time: Sep 23, 2014 at 4:38:27 PM

Latest Report: Sep 23, 2014 at 4:00 PM


Visibility: 4 mi

Pressure: 29.74 "Hg

Humidity: 74%

Dew point: 75 °F

Location of Kuala LumpurLocation

Historic Weather in Kuala Lumpur — Graph

°F

Kuala Lumpur temperature yesterday

Maximum temperature yesterday: 93 °F (at 3:00 PM)
Minimum temperature yesterday: 77 °F (at 2:00 AM)
Average temperature yesterday: 83 °F

Past Weeks' High & Low Weather Summary

 TemperatureHumidityPressure
High95 °F (Sep 18, 4:00 PM)100% (Sep 14, 8:00 AM)29.95 "Hg (Sep 14, 8:00 AM)
Low73 °F (Sep 14, 7:00 AM)44% (Sep 8, 4:00 PM)29.68 "Hg (Sep 16, 4:00 PM)
Average83 °F77%29.83 "Hg
* Reported Sep 8 3:00 PM — Sep 23 3:00 PM, Kuala Lumpur, Weather by CustomWeather, © 2014

Note: Actual official high and low records may vary slightly from our data, if they occured in-between our weather recording intervals... More about our weather records

Advertising

Kuala Lumpur weather history for previous 24 hours

 ConditionsComfort  
Time TempWeatherWind HumidityBarometerVisibility
3:00 PM
Sep 23
90 °FBroken clouds.9 mph63%29.74 "HgN/A
2:00 PM91 °FBroken clouds.13 mph59%29.80 "HgN/A
1:00 PM91 °FBroken clouds.8 mph56%29.83 "HgN/A
12:00 PM90 °FBroken clouds.8 mph55%29.86 "HgN/A
11:00 AM90 °FBroken clouds.8 mph52%29.89 "Hg6 mi
10:00 AM86 °FPartly sunny.7 mph59%29.89 "Hg4 mi
9:00 AM82 °FBroken clouds.2 mph79%29.86 "Hg3 mi
8:00 AM79 °FBroken clouds.No wind89%29.86 "Hg2 mi
7:00 AM77 °FPartly cloudy.No wind94%29.83 "Hg2 mi
6:00 AM77 °FPassing clouds.1 mph94%29.83 "Hg2 mi
5:00 AM77 °FPassing clouds.1 mph94%29.80 "Hg2 mi
4:00 AM79 °FPassing clouds.3 mph89%29.80 "Hg2 mi
3:00 AM79 °FPassing clouds.6 mph89%29.83 "Hg2 mi
2:00 AM79 °FPassing clouds.3 mph89%29.83 "Hg2 mi
1:00 AM79 °FPassing clouds.3 mph89%29.86 "Hg2 mi
12:00 AM81 °FPassing clouds.2 mph84%29.86 "Hg3 mi
11:00 PM
Sep 22
81 °FPassing clouds.5 mph84%29.86 "Hg3 mi
10:00 PM82 °FPartly cloudy.3 mph79%29.86 "Hg4 mi
9:00 PM84 °FPartly cloudy.No wind74%29.83 "Hg4 mi
8:00 PM84 °FPartly cloudy.1 mph70%29.80 "Hg4 mi
7:00 PM84 °FBroken clouds.2 mph70%29.77 "Hg5 mi
6:00 PM86 °FThunderstorms. Broken clouds.6 mph66%29.77 "HgN/A
5:00 PM91 °FPartly sunny.13 mph59%29.74 "HgN/A
4:00 PM91 °FBroken clouds.9 mph59%29.74 "HgN/A
Weather by CustomWeather, © 2014

See weather overviewHow to use our weather pages